Location: Street
(51.1247°N, 2.7429°W)
Time: 03:46:58
(UTC+01:00)

X-37B - Visible Passes

Search period start: 08 May 2021 00:00
Search period end: 18 May 2021 00:00
Orbit: 386 x 389 km, 45.0° (Epoch: 06 May)

Date Brightness Start Highest point End Pass type
(mag) Time Alt. Az. Time Alt. Az. Time Alt. Az.
08 May 2.0 22:16:36 10° WSW 22:19:15 24° S 22:20:10 21° SSE visible
09 May 2.8 22:55:07 10° WSW 22:56:32 15° SW 22:56:32 15° SW visible
10 May 2.3 21:56:31 10° WSW 21:58:54 20° SSW 22:00:38 14° SSE visible
11 May 3.1 22:35:52 10° SW 22:36:39 11° SSW 22:36:59 11° SSW visible
12 May 2.8 21:36:36 10° WSW 21:38:32 15° SSW 21:40:28 10° SSE visible
